Погода в Гаютином

Россия / Ярославская область     58°41′42″N   38°31′06″E
темп.,
°C
ветер,
м/с
пор.,
м/с
влажн.,
%
обл.,
%
осадки,
мм/ч
давл.,
гПа
погр.,
м
19 января, ср
ср1900:00−12сз4109665 0.0 1013221
03:00−15зсз389870 0.0 1014125
06:00−17з2210070 0.0 101418
09:00−17ююз2210089 0.0 101337
12:00−13ю3794100 0.0 1012124
15:00−10ю51095100 0.1 1010256
18:00−7ю51196100 0.5 1007360
21:00−7ююз61296100 1.1 1005367
20 января, чт
чт2000:00−5ю71396100 0.5 1003417
03:00−4ююз71495100 1.0 1001527
06:00−3ююз71396100 0.1 1000589
09:00−2ю61297100 0.2 999535
12:00−1ю71295100 0.0 999607
15:00−2ю71395100 0.1 998614
18:00−2ю71394100 0.1 997683
21:00−2ю81494100 0.1 997691
21 января, пт
пт2100:00−4ююв81496100 1.9 998635
03:00−5ююв71395100 3.8 998552
06:00−6ююв61395100 1.6 999509
09:00−7ююв61194100 2.0 1001381
12:00−7юв51094100 0.1 1003326
15:00−6юв5995100 0.4 1003420
18:00−7вюв51194100 0.8 1003518
21:00−7вюв6119293 1.5 1004662
22 января, сб
сб2200:00−9вюв51191100 0.1 1006425
03:00−10в5119275 0.1 1008312
06:00−10в51192100 0.1 1009400
09:00−9в5119193 0.2 1012439
12:00−9в499290 0.0 1014353
15:00−9в479471 0.1 1017204
18:00−12в489655 0.0 1020130
21:00−13в379755 0.0 1022106
23 января, вс
вс2300:00−15всв339855 0.0 102443
03:00−17св339961 0.0 102637
06:00−17всв3510079 0.0 102862
09:00−20св2210090 0.0 103011
12:00−12с1293100 0.0 1030118
15:00−10ссз2393100 0.1 1031190
18:00−11ссз2496100 0.3 1032129
21:00−14с229779 0.5 103424